Overview Statistics Trail Chart Weather Telemetry Raw packets
 

This is the latest recevied weather packets stored in our database for station/object IW1CBG-3. If no packets are shown the sender has not sent any weather packets the latest 10 day(s).

<< 1 2 3 4 >>
Time Temp. Humidity Pressure Rain* Wind** Luminosity Snow
1788678381 18.33° C 89% 1033.6 hPa 0 mm - - -
1788677779 17.78° C 90% 1033.8 hPa 0 mm - - -
1788677178 16.67° C 91% 1033.7 hPa 0 mm - - -
1788676578 16.11° C 93% 1033.9 hPa 0 mm - - -
1788675979 15.56° C 96% 1034.1 hPa 0 mm - - -
1788675378 15.56° C 97% 1033.8 hPa 0 mm - - -
1788674779 15.56° C 98% 1034.1 hPa 0 mm - - -
1788674178 15.56° C 98% 1033.9 hPa 0 mm - - -
1788673578 15° C 98% 1033.9 hPa 0 mm - - -
1788672979 15° C 98% 1033.7 hPa 0 mm - - -
1788672379 15° C 98% 1033.7 hPa 0 mm - - -
1788671779 15° C 98% 1033.7 hPa 0 mm - - -
1788671182 15° C 98% 1033.6 hPa 0 mm - - -
1788670578 15° C 98% 1033.4 hPa 0 mm - - -
1788669978 15° C 98% 1033.3 hPa 0 mm - - -
1788669378 15.56° C 98% 1033.2 hPa 0 mm - - -
1788668778 15.56° C 97% 1033.1 hPa 0 mm - - -
1788668178 15.56° C 97% 1033.2 hPa 0 mm - - -
1788667579 15.56° C 97% 1032.9 hPa 0 mm - - -
1788666979 15.56° C 97% 1032.9 hPa 0 mm - - -
1788666379 15.56° C 97% 1032.8 hPa 0 mm - - -
1788665779 15.56° C 97% 1032.7 hPa 0 mm - - -
1788665179 15.56° C 97% 1032.2 hPa 0 mm - - -
1788664579 15.56° C 97% 1032.6 hPa 0 mm - - -
1788663979 16.11° C 97% 1032.5 hPa 0 mm - - -

* Rain latest hour (hover to see other rain measurements)
** Current wind speed in m/s (hover to see current wind gust speed)